www.pogodaiklimat.ru

Погода и климат >> Архив погоды >> Парагвай >> Сан Эстанислао


ПОГОДА в Сан Эстанислао

  • Прогноз погоды в Сан Эстанислао
  • Монитор погоды в Сан Эстанислао

АРХИВ ПОГОДЫ в Сан Эстанислао

Время (UTC), дата Ветер
(напр.,м/с)
 
Видим.   Явления Облачность Т
(С)
Тd
(С)
f
(%)
Тe
(С)
Тes
(С)
Комфортность P
(гПа)
Po
(гПа)
Тmin
(С)
Tmax
(С)
R
(мм)
R24
(мм)
S
(см)
21 19.03 штиль 0 20 км 10/10 180 м
[Sc]
+28.2 +24.9 82 +40 +40 очень
душно
1009.4 987.9
00 20.03 штиль 0 20 км {дождь} 10/10 180 м
[Sc]
+27.4 +26.8 97 +43 +43 опасность
перегрева
1009.7 988.1 +29.0 0.0
03 20.03 штиль 0 1000 м дождь 10/10 180 м
[Sc]
+25.8 +24.6 93 +36 +36 очень
душно
1009.8 988.1 12
06 20.03 штиль 0 1000 м дождь 10/10 180 м
[Sc]
+22.2 +21.9 98 +29 +29 очень
душно
1010.5 988.5 1
09 20.03 штиль 0 1000 м дождь 10/10 180 м
[Sc]
+22.4 +21.9 97 +30 +30 очень
душно
1010.5 988.5 5
12 20.03 штиль 0 1000 м дождь 10/10 180 м
[Sc]
+22.2 +21.9 98 +29 +29 очень
душно
1013.5 991.5 +20.2 12
15 20.03 штиль 0 20 км {дождь} 10/10 180 м
[Sc]
+23.6 +22.9 96 +31 +31 очень
душно
1013.7 991.9 6
18 20.03 штиль 0 20 км 10/10 180 м
[Sc]
+24.4 +22.5 89 +32 +32 очень
душно
1012.7 990.9
21 20.03 штиль 0 20 км 6/0 2000 м
[Ac As]
+27.6 +25.2 87 +40 +41 очень
душно
1011.5 989.9
00 21.03 штиль 0 20 км 6/0 2000 м
[Ac As]
+22.4 +20.4 88 +29 +29 очень
душно
1011.9 989.9 +28.2
03 21.03 штиль 0 20 км 4/0 2000 м
[Ac As]
+22.2 +20.4 90 +29 +29 очень
душно
1011.9 989.9
12 21.03 штиль 0 20 км ясно +19.8 +18.5 92 +22 +30 комфорт 1014.7 992.5 +19.0
15 21.03 ЮВ 1 20 км ясно +24.6 +20.7 79 +31 +51 опасность
солнечного
удара
1014.2 992.3
21 21.03 ЮВ 1 20 км ясно +27.0 +22.5 76 +35 +36 очень
душно
1012.0 990.3
06 22.03 штиль 0 20 км 4/0 2000 м
[Ac As]
+17.0 +15.3 90 +17 +17 1014.8 992.3
09 22.03 штиль 0 20 км 5/0 2000 м
[Ac As]
+15.6 +14.5 93 +15 +15 1015.5 992.9
12 22.03 ЮВ 1 20 км 4/0 2000 м
[Ac As]
+20.2 +16.8 81 +24 +29 комфорт 1015.5 993.3 +15.5
15 22.03 ЮВ 1 20 км 6/0 2000 м
[Ac As]
+25.6 +20.1 72 +32 +43 очень
душно
1014.7 992.8
18 22.03 ЮВ 1 20 км 5/5 600 м
[Cu hum]
+29.4 +23.2 69 +39 +47 очень
душно
1012.4 990.8
21 22.03 штиль 0 20 км ясно +29.2 +23.2 70 +39 +40 очень
душно
1012.4 990.8
00 23.03 штиль 0 20 км ясно +25.6 +20.1 72 +32 +32 очень
душно
1012.7 991.0 +29.4
12 23.03 штиль 0 20 км ясно +18.6 +15.9 84 +19 +26 1015.6 993.3 +16.0
15 23.03 штиль 0 20 км ясно +26.8 +19.4 64 +32 +55 опасность
солнечного
удара
1013.8 992.1
18 23.03 штиль 0 20 км 10/10 600 м
[Sc]
+28.8 +21.7 66 +37 +37 очень
душно
1011.5 989.9
21 23.03 штиль 0 20 км 4/4 600 м
[Cu hum]
+28.6 +21.7 66 +37 +37 очень
душно
1011.5 989.9
00 24.03 штиль 0 20 км ясно +24.4 +17.8 67 +29 +29 душно 1012.4 990.5 +29.0
03 24.03 штиль 0 20 км ясно +24.2 +17.9 68 +28 +28 душно 1012.6 990.7
15 24.03 штиль 0 20 км ясно +28.0 +20.4 63 +34 +57 опасность
солнечного
удара
1011.5 989.9
18 24.03 штиль 0 20 км 5/5 600 м
[Cu hum]
+33.0 +21.1 50 +41 +49 опасность
перегрева
1010.2 988.9
12 25.03 штиль 0 20 км ясно +22.4 +18.6 79 +28 +35 душно 1014.4 992.3 +18.0
15 25.03 штиль 0 20 км 4/0 2000 м
[Ac As]
+28.6 +20.8 63 +36 +52 опасность
солнечного
удара
1014.4 992.8
18 25.03 штиль 0 20 км 5/5 900 м
[Cu hum]
+32.0 +21.3 53 +40 +48 очень
душно
1011.9 990.5
21 25.03 штиль 0 20 км 6/0 2000 м
[Ac As]
+31.8 +21.3 54 +40 +40 очень
душно
1011.9 990.5
00 26.03 штиль 0 20 км ясно +24.4 +17.3 65 +28 +28 душно 1013.8 991.9 +32.0
03 26.03 штиль 0 20 км ясно +24.2 +17.3 65 +28 +28 душно 1013.9 992.0
06 26.03 штиль 0 20 км ясно +22.0 +20.3 90 +28 +28 душно 1014.1 992.0
09 26.03 штиль 0 20 км 5/0 2000 м
[Ac As]
+18.8 +17.3 91 +20 +20 1014.4 992.2
12 26.03 штиль 0 20 км 4/0 2000 м
[Ac As]
+24.4 +17.3 65 +28 +33 душно 1015.2 993.3 +18.8
15 26.03 ЮВ 2 20 км ясно +28.0 +18.7 57 +33 +50 очень
душно
1016.6 994.9
18 26.03 ЮВ 1 20 км 4/4 600 м
[Cu hum]
+29.0 +18.0 51 +33 +42 очень
душно
1014.9 993.3

 

Местоположение метеостанции Сан Эстанислао (Парагвай): широта -24.65 долгота -56.43 высота над уровнем моря 168 м.

В архиве по умолчанию представлена погода в Сан Эстанислао за последнюю неделю. Архивные данные за месяц целиком и за предыдущие месяцы, начиная с января 2011 года, Вы можете получить, выбрав интересующий диапазон дат из раскрывающегося списка и нажав кнопку "Ввод!".


*Определитесь, кто Вы:
робот инопланетянин человек

Внимание! Время в таблицах - всемирное. Для получения местного времени необходимо прибавить поправку, которая равна -4 ч.

Смотрите также архив погоды в соседних городах и на ближайших метеорологических станциях:

Погода в Коронель-Овьедо (Парагвай) (89 км)
Погода в Сан-Педро (Парагвай) (93 км)
Погода в Вильяррике (Парагвай) (122 км)
Погода в Асунсьоне (Парагвай) (128 км)
Погода в Парагуари (Парагвай) (130 км)
Погода в Сети-Кедасе (Мату-Гросу-ду-Сул, Бразилия) (162 км)
Погода в Консепсьоне (Парагвай) (164 км)
Погода в Каасапе (Парагвай) (170 км)
Погода в Аэропорту Гуарани (Парагвай) (182 км)
Погода в Куйкуйо (Парагвай) (183 км)

Пояснения к столбцам:

Ветер - указаны скорость ветра в м/с - средняя за 10 мин, порывы в срок и между сроками (в фигурных скобках) и направление, откуда дует ветер: С - северный, СВ - северо-восточный, В - восточный, ЮВ - юго-восточный, Ю - южный, ЮЗ - юго-западный, З - западный, СЗ - северо-западный.
Видимость - горизонтальная дальность видимости в метрах или километрах. При видимости от 1 до 10 км при отсутствии осадков обычно наблюдается дымка, при ухудшении видимости до 1 км и менее - туман. В сухую погоду видимость может ухудшаться дымом, пылью или мглою.
Явления - указаны атмосферные явления, наблюдавшиеся в срок или в последний час перед сроком; фигурными скобками обозначены явления, наблюдавшиеся между сроками (за 1-3 часа до срока); квадратными скобками обозначены град или гололедные отложения с указанием их диаметра в мм.
Облачность - указаны через наклонную черту общая и нижняя облачность в баллах и высота нижней границы облаков в метрах; квадратными скобками обозначены формы облаков: Ci - перистые, Cs - перисто-слоистые, Cc - перисто-кучевые, Ac - высококучевые, As - высокослоистые, Sc - слоисто-кучевые, Ns - слоисто-дождевые, Cu - кучевые, Cb - кучево-дождевые. Подробнее классификацию облаков см. в Атласе облаков (PDF).
T - Температура воздуха - температура, измеренная на высоте 2 м над землей.
Td - Температура точки росы - температура, при понижении до которой содержащийся в воздухе водяной пар достигнет насыщения.
f - Относительная влажность воздуха - влажноcть воздуха, измеренная на высоте 2 м над землей.
Te - Эффективная температура - температура, которую ощущает одетый по сезону человек в тени. Характеристика душности погоды. При расчете учитывается влияние влажности воздуха и скорости ветра на теплоощущения человека.
Tes - Эффективная температура на солнце - температура, которую ощущает человек, с поправкой на солнечный нагрев. Характеристика знойности погоды. Зависит от высоты солнца над горизонтом, облачности и скорости ветра. Ночью, в пасмурную погоду, а также при ветре 12 м/с и более поправка равна нулю.
P - Атмосферное давление - приведенное к уровню моря атмосферное давление.
Po - Атмосферное давление - измеренное на уровне метеостанции атмосферное давление.
Tmin - Минимальная температура - минимум температуры воздуха на высоте 2 м над землей.
Tmax - Максимальная температура - максимум температуры воздуха на высоте 2 м над землей.
R - Количество осадков - Количество выпавших осадков за период времени, мм. При наведении курсора мыши на число - период времени, за который выпало указанное количество осадков.
R24 - Количество осадков - Количество выпавших осадков за 24 часа, мм.
S - Снежный покров - Высота снежного покрова, см. При наведении курсора мыши на число - состояние снежного покрова и степень покрытия местности в баллах.